Regional Weather Roundup
Issued by NWS

Home | Current Version | Previous Version | Text Only | Print | Product List | Glossary On
Versions: 1 2 3 4 5 6 7 8 9 10 11 12 13 14 15 16 17 18 19 20 21 22 23 24 25 26 27 28 29 30 31 32 33 34 35 36 37 38 39 40 41 42 43 44 45 46 47 48 49 50
000
ASUS43 KMPX 301401
RWRMN
WEATHER ROUNDUP FOR MINNESOTA
NATIONAL WEATHER SERVICE TWIN CITIES/CHANHASSEN MN
900 AM CDT TUE SEP 30 2014


NOTE: "FAIR" INDICATES FEW OR NO CLOUDS BELOW 12,000 FEET WITH NO
SIGNIFICANT WEATHER AND/OR OBSTRUCTIONS TO VISIBILITY. N/A MEANS
CURRENT SKY AND/OR WEATHER CONDITIONS ARE NOT AVAILABLE.

MNZ060>063-068>070-301500-
   Twin Cities Metro

CITY           SKY/WX    TMP DP  RH WIND       PRES   REMARKS
TWIN CITIES    CLOUDY    43  38  82 E10G21    30.07S
ST PAUL        CLOUDY    43  39  86 E12       30.09S
CRYSTAL        CLOUDY    44  38  79 E7        30.06S
BLAINE         CLOUDY    45  43  93 E9        30.08S
LAKEVILLE      CLOUDY    43  39  87 E12       30.06S
EDEN PRAIRIE   CLOUDY    43  40  89 E12       30.05S
SOUTH ST PAUL  CLOUDY    43  38  83 E9        30.08S
LAKE ELMO      CLOUDY    41  37  87 SE9       30.09S
$$
MNZ001>005-007-008-013>017-022>024-027-028-301500-
   Northwest Minnesota

CITY           SKY/WX    TMP DP  RH WIND       PRES   REMARKS
BEMIDJI        CLOUDY    42  40  93 SE12      30.02S
HALLOCK        CLOUDY    45  43  93 SE15      29.96F
ROSEAU         CLOUDY    45  41  87 SE13      30.02S
WARROAD        CLOUDY    45  39  81 SE14      30.03S
THIEF RVR FALL CLOUDY    45  39  81 SE17G24   29.98F
CROOKSTON      SUNNY     45  43  93 SE13      29.96F
FOSSTON        CLOUDY    43  41  93 SE12      29.98F
DETROIT LAKES  CLOUDY    43  41  93 SE13G18   29.97F
PARK RAPIDS    CLOUDY    41  39  93 E13       30.02F
MAHNOMEN       PTSUNNY   42  39  88 SE16      29.96F
$$
MNZ006-009>011-018-025>026-301500-
   North Central Minnesota

CITY           SKY/WX    TMP DP  RH WIND       PRES   REMARKS
BAUDETTE       CLOUDY    44  40  85 SE8       30.04S
FLAG ISLAND    CLOUDY    45  41  87 E10G18    30.03F
INTL FALLS     CLOUDY    41  39  93 SE8       30.09S
WASKISH        CLOUDY    43  41  93 CALM      30.05S
BIG FORK       CLOUDY    43  39  87 E10       30.08F
LONGVILLE      CLOUDY    39  37  93 SE5       30.06R
GRAND RAPIDS   CLOUDY    39  36  87 SE7       30.08R
CRANE LAKE     CLOUDY    41  39  93 CALM      30.13F
ORR            CLOUDY    41  37  87 SE5       30.08S
COOK           CLOUDY    39  37  93 SE7       30.11S
WALKER         CLOUDY    41  39  94 E7        30.04S
$$
MNZ012-019>021-037-301500-
   Northeast Minnesota

CITY           SKY/WX    TMP DP  RH WIND       PRES   REMARKS
DULUTH         CLOUDY    43  39  86 E13       30.10F
ELY            CLOUDY    39  37  93 SE8       30.13F FOG
HIBBING        CLOUDY    42  39  89 SE8       30.10F
EVELETH        CLOUDY    41  39  93 E7        30.11F
DULUTH HARBOR  CLOUDY    46  43  87 E16       30.13F
TWO HARBORS    CLOUDY    43  37  81 E12       30.11F
SILVER BAY     MOSUNNY   41  41 100 NE6       30.12F
GRAND MARAIS     N/A     46  37  71 NE8       30.17F
G MARAIS ARPRT CLOUDY    37  34  87 SE5       30.15F
$$
MNZ029>031-032-039>041-046>048-054>057-064-301500-
   West Central Minnesota

CITY           SKY/WX    TMP DP  RH WIND       PRES   REMARKS
FERGUS FALLS   CLOUDY    45  41  87 SE14      29.96F
WHEATON        CLOUDY    45  41  87 E17G26    29.93F
MORRIS         CLOUDY    45  43  93 SE17      29.95S
ALEXANDRIA     FOG       42  41  96 E13       29.98F VSB 3/4
ELBOW LAKE     CLOUDY    42  40  94 SE18      29.95F
WADENA         CLOUDY    39  37  93 E12       30.00F FOG
GLENWOOD       FOG       41  39  93 E14G22    29.98F VSB 1
APPLETON       CLOUDY    46  43  87 SE18G24   29.93F
BENSON         CLOUDY    45  43  93 SE13G20   29.97S
ORTONVILLE     CLOUDY    45  41  87 E15G23    29.91F
MADISON        MOSUNNY   48  46  93 E15G22    29.92F
WILLMAR        CLOUDY    45  43  93 E16G23    29.99F
$$
MNZ033>034-036-042>043-049>051-058-059-301500-
   Central Minnesota

CITY           SKY/WX    TMP DP  RH WIND       PRES   REMARKS
ST CLOUD       CLOUDY    44  39  82 E10       30.04F
SAUK CENTRE    FOG       40  40  99 E12G17    30.02S VSB 1
PAYNESVILLE    CLOUDY    39  39  99 NE9       30.02F
AITKIN         CLOUDY    43  37  81 E6        30.07R
PINE RIVER     CLOUDY    41  39  93 SE8G17    30.08F
BRAINERD       CLOUDY    42  40  92 E8        30.06S
STAPLES        CLOUDY    39  37  93 E7        30.03F
LONG PRAIRIE   CLOUDY    39  37  93 E8        30.02F FOG
LITTLE FALLS   CLOUDY    41  37  87 E10       30.05F FOG
LITCHFIELD     CLOUDY    43  43 100 E12       30.02F FOG
BUFFALO        CLOUDY    43  39  86 E14       30.05F
MAPLE LAKE     CLOUDY    43  41  93 E14       30.05F
$$
MNZ037-044-045-052-053-301500-
   East Central Minnesota

CITY           SKY/WX    TMP DP  RH WIND       PRES   REMARKS
PRINCETON      CLOUDY    43  39  87 E8        30.08S
MORA           CLOUDY    39  36  87 E6        30.10S
CAMBRIDGE      CLOUDY    43  36  75 E7        30.07S
RUSH CITY      FLURRIES  42  39  89 E7        30.09S
MOOSE LAKE     CLOUDY    41  37  87 E6        30.08F
HINCKLEY       CLOUDY    41  39  93 E9        30.10S
CLOQUET        CLOUDY    43  39  87 E6        30.10S
MCGREGOR       CLOUDY    41  39  93 E10       30.08F
$$
MNZ071>073-080-081-089-090-097-098-301500-
   Southwest Minnesota

CITY           SKY/WX    TMP DP  RH WIND       PRES   REMARKS
MONTEVIDEO     CLOUDY    45  43  93 SE16G22   29.96F
GRANITE FALLS  CLOUDY    45  42  90 E13G18    29.96F
CANBY          CLOUDY    47  44  91 E13G18    29.92F
MARSHALL       CLOUDY    46  41  81 SE20      29.92F
REDWOOD FALLS  CLOUDY    45  41  86 SE15G22   29.99S
OLIVIA         CLOUDY    43  39  87 E10G16    29.98S
PIPESTONE      CLOUDY    52  48  87 SE15G21   29.88F
WINDOM         FOG       46  46 100 E12       29.96S VSB 1
WORTHINGTON    CLOUDY    48  46  93 E10       29.93F
JACKSON        FOG       50  46  87 E13       29.96F VSB 3/4
TRACY          CLOUDY    47  45  93 E12       29.95S
SLAYTON        CLOUDY    48  47  95 E13G23    29.92F
$$
MNZ065>067-074>077-082>085-091>093-301500-
   South Central Minnesota

CITY           SKY/WX    TMP DP  RH WIND       PRES   REMARKS
MANKATO        CLOUDY    45  37  76 E12G21    30.02F
NEW ULM        SUNNY     43  43 100 SE10G18   30.00S
ST JAMES       CLOUDY    46  45  93 E12       30.00F
FAIRMONT       CLOUDY    48  45  87 E9        29.98F
GLENCOE        CLOUDY    44  39  85 E12       30.03S
FARIBAULT      CLOUDY    45  39  81 E10       30.05F
OWATONNA       CLOUDY    43  41  93 E10       30.05S FOG
WASECA         CLOUDY    41  37  87 E14       30.04F FOG
ALBERT LEA     CLOUDY    45  45 100 E13G18    30.01F FOG
$$
MNZ078>079-086>088-094>096-301500-
   Southeast Minnesota

CITY           SKY/WX    TMP DP  RH WIND       PRES   REMARKS
ROCHESTER      FOG       42  42 100 E10       30.07S VSB 1
RED WING       CLOUDY    45  39  81 E8        30.08S
STANTON          N/A    N/A N/A N/A MISG        N/A
DODGE CENTER   CLOUDY    43  43 100 SE13      30.05S FOG
WINONA         CLOUDY    43  39  87 E6        30.10R
AUSTIN         CLOUDY    45  43  93 E9        30.04F
PRESTON        CLOUDY    42  40  94 E9        30.07S FOG
$$
ABBREVIATIONS USED IN REMARKS
   TC - TEMPERATURES IN CELSIUS
  WCI - WIND CHILL INDEX
   HX - HEAT INDEX
  VSB - VISIBILITY
$$


USA.gov is the U.S. government's official web portal to all federal, state and local government web resources and services.